200 serials | private email password cracker v 1.0

Date Name Success Rate
2009-10-17 06:21:25 Digital Organizer V 1.0 75%
2009-10-17 06:32:45 Sun 3D Screensaver V 1.0-s0m 0%
2009-10-17 06:34:15 Unliterate Net Email Extractor V 0.0.0.21 0%
2009-10-17 06:34:15 Unliterate Net HTTP Auth Basic Password Determiner V 0.0.0.9 17%
2009-10-22 23:27:10 ACD VideoMagic Trial V. 1.0 (SR-1) 0%
2009-10-22 23:27:11 Acoustica Audio Converter Pro V.1.0.b20 0%
2009-10-22 23:27:14 Adobe System Cracker 0%
2009-10-22 23:27:14 Advance VBA Password Recovery Pro V.150 0%
2009-10-22 23:27:14 Advanced RAR Password Cracker 1.53 44%
2009-10-22 23:27:15 Advanced Zip Password Recovery 3.51 (Private Sniper) 0%
2009-10-22 23:27:15 Advanced Zip Password Recovery 3.53 (Private Sniper) 0%
2009-10-22 23:27:15 Advanced Zip Password Recovery 3.54 (Private Sniper) 0%
2009-10-22 23:27:25 Atomic Asterisk Cracker 1.10 0%
2009-10-22 23:27:25 Atomic Asterisk Cracker 1.20 37%
2009-10-22 23:44:48 Battle Planet V.1.0 (for PDA) 0%
2009-10-22 23:44:49 BeboSoft Email Fitness 1.0 0%
2009-10-22 23:45:52 Chico Private 0%
2009-10-22 23:45:56 Crysis V 1.0 60%
2009-10-22 23:46:25 Dekart Private Disk 2.1 17%
2009-10-22 23:46:26 DF Password Cracker V3.0 20%
2009-10-22 23:46:27 Digital Organizer V.1.0 0%
2009-10-22 23:47:41 Email Chess Supreme 1.0 0%
2009-10-22 23:47:41 Email Coder Pro 1.0 0%
2009-10-22 23:47:41 Email Saver Xe 1.0 0%
2009-10-22 23:47:42 Error Nuker 2005 V 1.0 0%
2009-10-22 23:48:06 Half-Life: Blue Shift V. 1.0 + Opossing Force Multiplayer 53%
2009-10-22 23:48:16 INeeda Password & Tracker 1.0 0%
2009-10-22 23:48:17 Instant Messengers Password Recovery Master 1.0 0%
2009-10-22 23:48:44 Macromedia Contribute V.1.0. 0%
2009-10-22 23:48:45 MAIL.RU Pass Cracker 2.0 0%
2009-10-22 23:48:45 Mail.ru Pass Cracker 2.0 0%
2009-10-22 23:48:45 MAIL.RU Pass Cracker V2.0 80%
2009-10-22 23:48:46 Markosoft Password Organizer 1.0 0%
2009-10-22 23:48:52 Multi Password Recovery V.1.1.5 94%
2009-10-22 23:49:12 Opell All Products V 1.0 0%
2009-10-22 23:49:13 Operation Flashpoint V. 1.0 0%
2009-10-22 23:49:20 Password Recovery Deluxe 1.0 0%
2009-10-22 23:49:20 Password Shop 1.0 0%
2009-10-22 23:49:20 Password Spyer 2k 1.0 0%
2009-10-22 23:49:21 Pdf Password Cracker Enterprise 3 60%
2009-10-22 23:49:21 PDF Password Cracker Pro V 2.0 60%
2009-10-22 23:49:21 PDF Password Cracker Pro V2.0 37%
2009-10-22 23:49:21 PDF Password Cracker V3.0 0%
2009-10-22 23:49:21 PDF Password Remover V.2.1 (05-03-04) 0%
2009-10-22 23:49:21 PhatCat Technologies Email Verifier 1.0 0%
2009-10-22 23:49:26 Pretty Password 1.0 70%
2009-10-22 23:49:26 Private Eye 3.0 0%
2009-10-22 23:49:26 Private Pix 2.9 0%
2009-10-22 23:49:27 Project Billing V.1.0 0%
2009-10-22 23:49:41 RAR Password Cracker 96%
2009-10-22 23:49:41 RAR Password Cracker V4.12 64%
2009-10-22 23:49:51 Safe Cracker Fruit Machine V2.03 0%
2009-10-22 23:49:52 SEF Kit V 1.0 0%
2009-10-22 23:49:52 Sentinel Password Generator 1.0. 0%
2009-10-22 23:50:01 Sun 3D Screensaver V.1.0 80%
2009-10-22 23:50:09 The Bat! Private Disk 2.02 0%
2009-10-22 23:50:13 Turbo Zip Cracker 0.3 32%
2009-10-22 23:50:36 Windows Password Analyser 1.0 0%
2009-10-22 23:50:39 Wiz2Use Email SafeCheck 1.0 0%
2009-10-22 23:50:39 Word Password Recovery 1.0 0%
2009-10-22 23:50:57 Zip Password Cracker Pro 1.1b 60%
2009-10-22 23:50:57 Zip Password Cracker Pro V1.1b 60%
2009-10-22 23:50:57 Zip Password Cracker Pro V1.2 40%
2011-09-08 09:45:41 1stClass v.1.0 Pre Release 1 0%
2011-09-08 09:45:55 3D Audio V.1.0 0%
2011-09-08 09:58:16 Ace-High CD Burner v: 1.0 0%
2011-09-08 09:59:01 Acronis Migrate Easy Deluxe v: 1.0 0%
2011-09-08 10:00:45 Adobe System Cracker 0%
2011-09-08 10:00:56 Advanced Access Password Recovery 1.0 0%
2011-09-08 10:00:56 Advanced ACE Password Recovery 1.0 0%
2011-09-08 10:00:56 Advanced ACT Password Recovery 1.0 0%
2011-09-08 10:01:26 Advanced Office 2000 Password Recovery Pro 1.0 0%
2011-09-08 10:01:29 Advanced Outlook Express Password Recovery 1.0 0%
2011-09-08 10:01:29 Advanced PDF Password Recovery 1.0 0%
2011-09-08 10:01:32 Advanced QuickBooks Password Recovery 1.0 0%
2011-09-08 10:01:32 Advanced Random Password Generator 1.0 0%
2011-09-08 10:01:32 Advanced RAR Password Recovery 1.0 0%
2011-09-08 10:01:42 Advanced WordPerfect Office Password Recovery 1.0 0%
2011-09-08 10:01:42 Advanced Zip Password Recovery v3.51 Private Sniper 0%
2011-09-08 10:01:42 Advanced Zip Password Recovery v3.53 Private Sniper 0%
2011-09-08 10:01:42 Advanced Zip Password Recovery v3.54 Private Sniper 0%
2011-09-08 10:02:53 Akala Password Revealer 1.0 0%
2011-09-08 10:05:59 Aloha Multimedia Email v.2.0a 0%
2011-09-08 10:09:28 Atomic Asterisk Cracker 1.20 0%
2011-09-08 10:09:28 Atomic Asterisk Cracker v1.10 0%
2011-09-08 10:21:16 BPM-estudio v4.7 private 0%
2011-09-08 10:21:58 Buisness 5 v.1.0 0%
2011-09-08 10:25:36 Check Email Pro 1.0 0%
2011-09-08 10:31:59 Crazy Email Address Searcher 1.0 0%
2011-09-08 10:33:12 CyberBrothers Password Kit 1.0 0%
2011-09-08 10:42:28 dBase V 1.0 0%
2011-09-08 10:42:46 Dekart Private Disk 2,05 0%
2011-09-08 10:42:46 Dekart Private Disk v2.0 0%
2011-09-08 10:43:34 Digital Organizer v.1.0 0%
2011-09-08 10:46:43 EA Games Battlefield 2 V 1.0 0%
2011-09-08 10:47:10 Easy Password 1.0 0%
2011-09-08 10:49:07 Email Chess Supreme 1.0 0%
2011-09-08 10:49:12 Email Coder Pro 1.0 0%
2011-09-08 10:49:12 Email Effects 1.0 0%
2011-09-08 10:49:12 Email Fitness 1.0 0%
2011-09-08 10:49:12 Email Generator 1.0 0%
2011-09-08 10:49:12 Email Genius 1.0 0%
2011-09-08 10:49:12 Email Hoover 1.0 0%
2011-09-08 10:49:12 EMail Killer 1.0 0%
2011-09-08 10:49:14 Email Privacy v 2.9 0%
2011-09-08 10:49:14 Email Reminders 1.0 0%
2011-09-08 10:49:14 Email Saver Xe 1.0 0%
2011-09-08 10:49:16 Email Via Phone 1.0 0%
2011-09-08 10:50:35 Express Email Address List Man 1.0 0%
2011-09-08 10:50:50 Eye Viewer V.1.0 0%
2011-09-08 10:53:56 Fast Email Spider 1.0 0%
2011-09-08 11:13:32 Icon Drive v.1.0 Win95/NT 0%
2011-09-08 11:15:11 iNeeda Password & Tracker 1.0 0%
2011-09-08 11:15:11 iNeeda Password & Tracker 1.0 DC 08202004 0%
2011-09-08 11:15:50 Instant Messengers Password Recovery Master 1.0 0%
2011-09-08 11:29:24 Markosoft Password Organizer 1.0 0%
2011-09-08 11:32:46 MiniCat Private Label v3.0g 0%
2011-09-08 11:32:46 MiniCat Private Label v3.6e 0%
2011-09-08 11:43:25 Nouveux Password 2000 1.0 0%
2011-09-08 11:43:38 NTI CD-Maker 6 MP3 Plug-in v.1.0-Retail 0%
2011-09-08 11:43:38 NTI CD-Maker 6 MPEG2 Plug-in v.1.0-Retail 0%
2011-09-08 12:25:33 My 3D Animation Pro v.1.0 0%
2011-09-08 12:25:46 My Voice Email 1.0 0%
2011-09-08 12:28:32 Password & Keys 1.0 0%
2011-09-08 12:28:35 Password 2000 1.0 0%
2011-09-08 12:28:35 Password Agent 1.0 0%
2011-09-08 12:28:35 Password Creator 1.0 0%
2011-09-08 12:28:37 Password Explorer 1.0 0%
2011-09-08 12:28:40 Password Lock Transparent Screensaver 1.0 0%
2011-09-08 12:28:40 Password Lock Transparent ScreenSaver Utility 1.0 0%
2011-09-08 12:28:40 Password Organizer 1.0 0%
2011-09-08 12:28:40 Password Power 1.0 0%
2011-09-08 12:28:40 Password Protector 1.0 0%
2011-09-08 12:28:40 Password Recovery Deluxe 1.0 0%
2011-09-08 12:28:42 Password Security Vault 1.0 0%
2011-09-08 12:28:42 Password Shop 1.0 0%
2011-09-08 12:28:42 Password Spyer 2k 1.0 0%
2011-09-08 12:28:42 Password Vision 1.0 0%
2011-09-08 12:28:42 Password Wizard 1.0 0%
2011-09-08 12:30:20 PhatCat Technologies Email Verifier 1.0 0%
2011-09-08 12:35:37 Power Email Extractor 1.0 0%
2011-09-08 12:36:28 Prepware Private Pilot 8 0%
2011-09-08 12:36:33 Pretty Password 1.0 0%
2011-09-08 12:37:49 QWcrack Quicken password cracker 0%
2011-09-08 12:38:18 Private Desktop 1.0 0%
2011-09-08 12:38:18 Private Desktop 1.6 0%
2011-09-08 12:38:18 Private Desktop v1.6 0%
2011-09-08 12:38:18 Private Eye 1.0 0%
2011-09-08 12:38:18 Private Eye 3.0 0%
2011-09-08 12:38:18 Private Eye v3.0 0%
2011-09-08 12:38:20 Private Idaho Email 4.3.21 0%
2011-09-08 12:38:20 Private Idaho Email v4.3.21 0%
2011-09-08 12:38:20 Private Message Plus 2.02 0%
2011-09-08 12:38:20 Private Pix 2.00 0%
2011-09-08 12:38:20 Private Pix v1.22 0%
2011-09-08 12:38:20 Private Pix v2.11 0%
2011-09-08 12:38:20 Private Pix v2.51 0%
2011-09-08 12:38:20 Private Sites 3.0.1 100%
2011-09-08 12:38:20 Private Sitez 1.0 0%
2011-09-08 12:38:20 Private Sitez 2.0.04011 0%
2011-09-08 12:38:20 Private Sitez v1.01 0%
2011-09-08 12:38:35 Project Password 1.0 0%
2011-09-08 12:40:05 RA Super 5-Line Slots v.1.0 0%
2011-09-08 12:40:30 RAR Password Cracker by DBC 0%
2011-09-08 12:43:50 Rixler Access Password Recovery Master 1.0 0%
2011-09-08 12:45:49 Screechy Password Generator 1.0 100%
2011-09-08 12:50:45 SPARLE SWF V 1.0 0%
2011-09-08 12:53:01 The Bat! Private Disk 2.02 0%
2011-09-08 12:54:48 Top Password AIM Password Recovery 1.0 0%
2011-09-08 12:54:48 Top Password Dialup Password Recovery 1.0 0%
2011-09-08 12:54:48 Top Password Google Talk Password Recovery 1.0 60%
2011-09-08 12:54:48 Top Password IE Password Recovery 1.0 0%
2011-09-08 12:54:48 Top Password Miranda Password Recovery 1.0 0%
2011-09-08 12:54:50 Top Password MS Product Key Recovery 1.0 100%
2011-09-08 12:54:50 Top Password MSN Password Recovery 1.0 55%
2011-09-08 12:54:50 Top Password Outlook Password Recovery 1.0 0%
2011-09-08 12:54:50 Top Password Recovery Bundle 2007 1.0 0%
2011-09-08 12:54:50 Top Password Trillian Password Recovery 1.0 0%
2011-09-08 12:59:33 Super Email Verifier v 1.66 0%
2011-09-08 13:07:53 Ultimate Zip Cracker 4.2 45%
2011-09-08 13:07:53 Ultimate Zip Cracker v4.2 35%
2011-09-08 13:08:00 Ultra Zip Password Cracker 1.10 0%
2011-09-08 13:08:02 Ultra Zip Password Cracker v1.10 0%
2011-09-08 13:08:41 Universal Password V-Go v1.5 0%
2011-09-08 13:11:10 V-Go Universal Password 1.5 0%
2011-09-08 13:11:10 V-Go Universal Password v1.5 0%
2011-09-08 13:11:10 V-Go Universal Password v1.5a 0%
2011-09-08 13:18:21 Windows Cracker 2.0E 0%
2011-09-08 13:18:21 Windows Cracker v2.0E 0%
2011-09-08 13:18:26 Windows Password Analyser 1.0 0%
2011-09-08 13:20:22 Wiz2Use Email SafeCheck 1.0 0%
2011-09-08 13:20:49 WPcrak Word Perfect password cracker 0%
2011-09-08 13:23:50 Zip Password Cracker Pro 1.1b 60%
2011-09-08 13:23:50 Zip Password Cracker Pro 1.2 94%
2011-09-08 13:23:50 Zip Password Cracker Pro v1.1b 0%
2011-09-08 13:23:50 Zip Password Cracker Pro v1.2 0%
2012-12-12 06:39:33 Counter Strike 1.6 EnerGy v.1.0 - DrYx 0%
2012-12-12 07:59:14 DLL files FIXER v 1.0 37%
2012-12-12 18:24:07 MAIL.RU Pass Cracker 0%
2012-12-12 18:27:57 MakeMe3D V.1.0 0%